Munster, IL

2:59 AM CDT on July 24, 2016 (GMT -0500)
Lansing Municipal

Weather History for KIGQ - November, 2012

Change the Weather History Date:

Thursday, November 15, 2012

  Actual Average (KMDW) Record (KMDW)
Temperature  
Mean Temperature 34 °F 42 °F  
Max Temperature 47 °F 49 °F 72 °F (1990)
Min Temperature 22 °F 35 °F 8 °F (1933)
Degree Days  
Heating Degree Days 30 23  
Month to date heating degree days 298  
Since 1 July heating degree days 729  
Cooling Degree Days 0 0  
Month to date cooling degree days 0  
Year to date cooling degree days 1045  
Moisture  
Dew Point 26 °F    
Average Humidity 78    
Maximum Humidity 96    
Minimum Humidity 41    
Precipitation  
Precipitation 0.00 in 0.12 in 0.89 in (1989)
Month to date precipitation 1.73  
Year to date precipitation 34.83  
Sea Level Pressure  
Sea Level Pressure 30.37 in    
Wind  
Wind Speed 1 mph (SSW)    
Max Wind Speed 6 mph    
Max Gust Speed -    
Visibility 8 miles    
Events      
T = Trace of Precipitation, MM = Missing Value Source: NWS Daily Summary

Daily Weather History Graph

Daily Weather History Graph

Search for Another Location

Airport or City:

Trip Planner

Search our weather history database for the weather conditions in past years. The results will help you decide how hot, cold, wet, or windy it might be!

Date:

Astronomy

Nov. 15, 2012 Rise Set
Actual Time 6:39 AM CST 4:29 PM CST
Civil Twilight 6:09 AM CST 4:59 PM CST
Nautical Twilight 5:36 AM CST 5:33 PM CST
Astronomical Twilight 5:03 AM CST 6:05 PM CST
Moon 8:35 AM CST (11/15) 6:19 PM CST (11/15)
Length of Visible Light 10h 49m
Length of Day
9h 50m
Waxing Crescent, 5% of the Moon is Illuminated
Nov 15
Waxing Crescent
Nov 20
First Quarter
Nov 28
Full
Dec 6
Last Quarter
Dec 13
New

Hourly Weather History & Observations

Time (CST) Temp. Windchill Dew Point Humidity Pressure Visibility Wind Dir Wind Speed Gust Speed Precip Events Conditions
12:15 AM 29.1 °F - 25.0 °F 85% 30.39 in 10.0 mi Calm Calm - N/A   Clear
12:35 AM 29.1 °F - 25.3 °F 86% 30.39 in 10.0 mi Calm Calm - N/A   Clear
12:55 AM 30.2 °F - 26.6 °F 86% 30.39 in 10.0 mi Calm Calm - N/A   Clear
1:15 AM 27.7 °F - 23.5 °F 84% 30.38 in 10.0 mi Calm Calm - N/A   Clear
1:35 AM 28.2 °F - 25.3 °F 89% 30.39 in 7.0 mi Calm Calm - N/A   Clear
1:55 AM 28.4 °F - 25.0 °F 87% 30.38 in 7.0 mi Calm Calm - N/A   Clear
2:15 AM 28.0 °F - 24.8 °F 88% 30.39 in 7.0 mi Calm Calm - N/A   Clear
2:35 AM 27.5 °F - 24.8 °F 90% 30.39 in 7.0 mi Calm Calm - N/A   Clear
2:55 AM 26.6 °F - 24.3 °F 91% 30.38 in 7.0 mi Calm Calm - N/A   Clear
3:15 AM 24.8 °F - 23.0 °F 93% 30.37 in 5.0 mi Calm Calm - N/A   Clear
3:35 AM 23.2 °F - 21.7 °F 94% 30.36 in 5.0 mi Calm Calm - N/A   Clear
3:55 AM 23.2 °F - 22.1 °F 96% 30.36 in 5.0 mi Calm Calm - N/A   Clear
4:15 AM 24.8 °F - 23.7 °F 96% 30.36 in 5.0 mi Calm Calm - N/A   Clear
4:35 AM 25.2 °F - 23.9 °F 95% 30.37 in 5.0 mi Calm Calm - N/A   Clear
4:55 AM 25.7 °F - 24.1 °F 94% 30.37 in 7.0 mi Calm Calm - N/A   Clear
5:15 AM 24.3 °F - 22.6 °F 94% 30.37 in 7.0 mi Calm Calm - N/A   Clear
5:35 AM 22.8 °F - 21.7 °F 96% 30.37 in 2.0 mi Calm Calm - N/A   Clear
5:55 AM 22.5 °F - 21.2 °F 95% 30.37 in 4.0 mi Calm Calm - N/A   Clear
6:15 AM 23.0 °F - 21.9 °F 96% 30.37 in 4.0 mi Calm Calm - N/A   Clear
6:35 AM 25.7 °F - 24.4 °F 95% 30.38 in 5.0 mi Calm Calm - N/A   Clear
6:55 AM 24.6 °F - 22.8 °F 93% 30.37 in 3.0 mi Calm Calm - N/A   Clear
7:15 AM 24.8 °F - 23.2 °F 94% 30.38 in 3.0 mi Calm Calm - N/A   Clear
7:35 AM 25.7 °F - 24.3 °F 94% 30.39 in 4.0 mi Calm Calm - N/A   Clear
7:55 AM 26.8 °F - 25.2 °F 94% 30.39 in 4.0 mi Calm Calm - N/A   Clear
8:15 AM 29.1 °F - 27.5 °F 94% 30.39 in 4.0 mi Calm Calm - N/A   Clear
8:35 AM 31.8 °F - 29.1 °F 90% 30.40 in 4.0 mi Calm Calm - N/A   Clear
8:55 AM 32.9 °F - 29.8 °F 88% 30.40 in 5.0 mi Calm Calm - N/A   Clear
9:15 AM 34.7 °F - 30.4 °F 84% 30.40 in 5.0 mi Calm Calm - N/A   Haze
9:35 AM 35.8 °F 33.0 °F 30.6 °F 81% 30.40 in 5.0 mi SSW 3.5 mph - N/A   Haze
9:55 AM 37.4 °F - 30.2 °F 75% 30.41 in 7.0 mi Calm Calm - N/A   Clear
10:15 AM 37.4 °F 34.9 °F 30.6 °F 76% 30.41 in 7.0 mi SSW 3.5 mph - N/A   Clear
10:35 AM 39.2 °F 35.9 °F 31.3 °F 73% 30.40 in 7.0 mi South 4.6 mph - N/A   Clear
10:55 AM 40.8 °F 38.8 °F 31.1 °F 68% 30.40 in 7.0 mi SSW 3.5 mph - N/A   Clear
11:15 AM 41.7 °F 38.8 °F 30.9 °F 66% 30.39 in 10.0 mi SSW 4.6 mph - N/A   Clear
11:35 AM 42.1 °F 40.2 °F 30.2 °F 63% 30.38 in 10.0 mi SW 3.5 mph - N/A   Clear
11:55 AM 42.8 °F 40.1 °F 30.2 °F 61% 30.37 in 10.0 mi South 4.6 mph - N/A   Clear
12:15 PM 43.9 °F - 29.3 °F 57% 30.36 in 10.0 mi Calm Calm - N/A   Clear
12:35 PM 44.6 °F 41.4 °F 30.0 °F 57% 30.36 in 10.0 mi South 5.8 mph - N/A   Clear
12:55 PM 45.1 °F 42.0 °F 27.9 °F 51% 30.34 in 10.0 mi South 5.8 mph - N/A   Clear
1:15 PM 46.0 °F 44.8 °F 27.7 °F 49% 30.34 in 10.0 mi SW 3.5 mph - N/A   Clear
1:35 PM 46.6 °F - 26.1 °F 45% 30.33 in 10.0 mi Calm Calm - N/A   Clear
1:55 PM 46.0 °F 44.8 °F 26.2 °F 46% 30.33 in 10.0 mi SW 3.5 mph - N/A   Clear
2:15 PM 46.9 °F - 24.8 °F 42% 30.33 in 10.0 mi SW 3.5 mph - N/A   Clear
2:35 PM 47.3 °F - 26.1 °F 44% 30.32 in 10.0 mi South 4.6 mph - N/A   Clear
2:55 PM 46.4 °F 44.3 °F 24.8 °F 43% 30.32 in 10.0 mi South 4.6 mph - N/A   Clear
3:15 PM 46.4 °F 44.3 °F 23.9 °F 41% 30.33 in 10.0 mi SSW 4.6 mph - N/A   Clear
3:35 PM 45.3 °F 42.3 °F 24.3 °F 44% 30.33 in 10.0 mi SSW 5.8 mph - N/A   Clear
3:55 PM 44.6 °F 42.2 °F 26.6 °F 49% 30.33 in 10.0 mi SSW 4.6 mph - N/A   Clear
4:15 PM 42.4 °F 39.6 °F 28.4 °F 58% 30.33 in 10.0 mi SSW 4.6 mph - N/A   Clear
4:35 PM 39.4 °F 35.2 °F 27.5 °F 62% 30.33 in 10.0 mi SSW 5.8 mph - N/A   Clear
4:55 PM 37.4 °F 32.8 °F 27.1 °F 66% 30.34 in 10.0 mi SSW 5.8 mph - N/A   Clear
5:15 PM 34.7 °F 30.6 °F 27.0 °F 73% 30.34 in 10.0 mi SSW 4.6 mph - N/A   Clear
5:35 PM 34.5 °F - 27.3 °F 75% 30.35 in 10.0 mi Calm Calm - N/A   Clear
5:55 PM 35.8 °F 33.0 °F 27.5 °F 72% 30.35 in 10.0 mi SSW 3.5 mph - N/A   Clear
6:15 PM 33.4 °F - 27.5 °F 79% 30.36 in 10.0 mi Calm Calm - N/A   Clear
6:35 PM 34.9 °F - 27.5 °F 74% 30.36 in 10.0 mi Calm Calm - N/A   Clear
6:55 PM 33.4 °F - 27.7 °F 79% 30.36 in 10.0 mi Calm Calm - N/A   Clear
7:15 PM 32.9 °F - 28.4 °F 84% 30.36 in 10.0 mi Calm Calm - N/A   Clear
7:35 PM 31.6 °F - 27.5 °F 85% 30.37 in 7.0 mi Calm Calm - N/A   Clear
7:55 PM 31.8 °F - 27.5 °F 84% 30.37 in 10.0 mi Calm Calm - N/A   Clear
8:15 PM 32.2 °F - 28.4 °F 86% 30.37 in 10.0 mi Calm Calm - N/A   Clear
8:35 PM 30.7 °F - 26.6 °F 85% 30.37 in 10.0 mi Calm Calm - N/A   Clear
8:55 PM 32.0 °F - 27.7 °F 84% 30.38 in 10.0 mi Calm Calm - N/A   Clear
9:15 PM 32.0 °F - 27.5 °F 83% 30.37 in 10.0 mi Calm Calm - N/A   Clear
9:35 PM 31.3 °F - 27.0 °F 84% 30.37 in 7.0 mi Calm Calm - N/A   Clear
9:55 PM 28.8 °F - 25.3 °F 87% 30.37 in 7.0 mi Calm Calm - N/A   Clear
10:15 PM 30.2 °F - 26.6 °F 86% 30.37 in 7.0 mi Calm Calm - N/A   Clear
10:35 PM 30.9 °F - 27.3 °F 86% 30.38 in 7.0 mi Calm Calm - N/A   Clear
10:55 PM 28.4 °F - 25.7 °F 90% 30.38 in 7.0 mi Calm Calm - N/A   Clear
11:15 PM 27.9 °F - 25.5 °F 91% 30.38 in 7.0 mi Calm Calm - N/A   Clear
11:35 PM 29.3 °F - 27.0 °F 91% 30.39 in 7.0 mi Calm Calm - N/A   Clear
11:55 PM 29.8 °F - 27.1 °F 90% 30.39 in 7.0 mi Calm Calm - N/A   Clear